Weather History for PAJN - January, 2014

Change the Weather History Date:

Friday, January 3, 2014

  Actual Average Record
Temperature  
Mean Temperature 35 °F 28 °F  
Max Temperature 37 °F 33 °F 42 °F (1981)
Min Temperature 33 °F 24 °F -13 °F (1965)
Degree Days  
Heating Degree Days 30 37  
Month to date heating degree days 85 111  
Since 1 July heating degree days 3710 3832  
Moisture  
Dew Point 33 °F    
Average Humidity 96    
Maximum Humidity 100    
Minimum Humidity 92    
Precipitation  
Precipitation 0.04 in 0.18 in 1.42 in (1949)
Month to date precipitation 0.72 0.52  
Year to date precipitation 0.72 0.52  
Snow  
Snow T in 0.70 in 9.80 in (1972)
Month to date snowfall T 2.1  
Since 1 July snowfall 59.6 31.6  
Snow Depth 1.00 in    
Sea Level Pressure  
Sea Level Pressure 30.31 in    
Wind  
Wind Speed 2 mph (East)    
Max Wind Speed 9 mph    
Max Gust Speed 12 mph    
Visibility 5 miles    
Events Rain , Snow    
T = Trace of Precipitation, MM = Missing Value Source: NWS Daily Summary

Daily Weather History Graph

Daily Weather History Graph

Search for Another Location

Airport or City:

Trip Planner

Search our weather history database for the weather conditions in past years. The results will help you decide how hot, cold, wet, or windy it might be!

Date:

Astronomy

Jan. 03, 2014 Rise Set
Actual Time 8:45 AM AKST 3:20 PM AKST
Civil Twilight 7:53 AM AKST 4:12 PM AKST
Nautical Twilight 7:01 AM AKST 5:05 PM AKST
Astronomical Twilight 6:12 AM AKST 5:53 PM AKST
Moon 9:30 AM AKST (1/3) 7:30 PM AKST (1/3)
Length of Visible Light 8h 18m
Length of Day
6h 35m
Waxing Crescent, 9% of the Moon is Illuminated
Jan 3
Waxing Crescent
Jan 7
First Quarter
Jan 15
Full
Jan 23
Last Quarter
Jan 30
New

Hourly Weather History & Observations

Time (AKST) Temp. Windchill Dew Point Humidity Pressure Visibility Wind Dir Wind Speed Gust Speed Precip Events Conditions
12:53 AM 34.0 °F - 33.1 °F 96% 30.09 in 5.0 mi Calm Calm - 0.00 in   Light Drizzle
1:40 AM 34.0 °F - 33.1 °F 96% 30.12 in 3.0 mi Calm Calm - 0.00 in   Light Drizzle
1:53 AM 34.0 °F - 33.1 °F 96% 30.13 in 2.5 mi Calm Calm - 0.00 in   Light Drizzle
2:06 AM 34.0 °F - 33.1 °F 96% 30.13 in 3.0 mi Calm Calm - 0.00 in   Light Drizzle
2:53 AM 34.0 °F - 33.1 °F 96% 30.16 in 5.0 mi Calm Calm - 0.00 in Snow Light Snow
3:53 AM 34.0 °F 29.8 °F 33.1 °F 96% 30.18 in 3.0 mi SE 4.6 mph - 0.00 in   Overcast
4:44 AM 34.0 °F 29.8 °F 33.1 °F 96% 30.19 in 8.0 mi ENE 4.6 mph - 0.00 in   Light Drizzle
4:53 AM 34.0 °F 28.8 °F 32.0 °F 92% 30.19 in 4.0 mi ENE 5.8 mph - 0.00 in   Light Drizzle
5:32 AM 35.1 °F 29.3 °F 34.0 °F 96% 30.20 in 10.0 mi East 6.9 mph - 0.00 in   Overcast
5:48 AM 35.6 °F 30.7 °F 33.8 °F 93% 30.22 in 10.0 mi East 5.8 mph - 0.00 in Rain Light Rain
5:53 AM 35.1 °F 30.1 °F 34.0 °F 96% 30.22 in 10.0 mi ENE 5.8 mph - 0.00 in Rain Light Rain
6:53 AM 34.0 °F - 33.1 °F 96% 30.26 in 6.0 mi Calm Calm - 0.00 in Rain Light Rain
7:53 AM 34.0 °F 29.8 °F 33.1 °F 96% 30.26 in 4.0 mi ENE 4.6 mph - 0.00 in Rain Light Rain
8:35 AM 35.1 °F 30.1 °F 33.1 °F 92% 30.28 in 10.0 mi East 5.8 mph - 0.00 in   Overcast
8:53 AM 34.0 °F - 34.0 °F 100% 30.29 in 5.0 mi Calm Calm - 0.01 in Rain Light Rain
9:26 AM 34.0 °F - 33.1 °F 96% 30.30 in 10.0 mi Calm Calm - 0.00 in   Overcast
9:53 AM 34.0 °F 31.0 °F 33.1 °F 96% 30.31 in 10.0 mi Variable 3.5 mph - 0.00 in   Overcast
10:37 AM 36.0 °F 31.1 °F 34.0 °F 93% 30.32 in 10.0 mi ENE 5.8 mph - 0.00 in Rain Light Rain
10:53 AM 36.0 °F 30.3 °F 34.0 °F 93% 30.33 in 10.0 mi East 6.9 mph - 0.00 in Rain Light Rain
11:53 AM 35.1 °F - 34.0 °F 96% 30.34 in 7.0 mi Calm Calm - 0.00 in   Overcast
12:38 PM 36.0 °F 33.3 °F 34.0 °F 93% 30.35 in 7.0 mi East 3.5 mph - 0.01 in   Overcast
12:53 PM 36.0 °F - 35.1 °F 97% 30.36 in 10.0 mi Calm Calm - 0.01 in   Overcast
1:53 PM 36.0 °F 33.3 °F 35.1 °F 97% 30.37 in 10.0 mi SSW 3.5 mph - 0.00 in Rain Light Rain
2:53 PM 35.1 °F - 34.0 °F 96% 30.38 in 6.0 mi Calm Calm - 0.00 in Rain Light Rain
3:53 PM 35.1 °F - 34.0 °F 96% 30.39 in 5.0 mi Calm Calm - 0.01 in Rain Light Rain
4:51 PM 35.6 °F - 33.8 °F 93% 30.40 in 1.8 mi Calm Calm - 0.00 in Rain Light Rain
4:53 PM 35.1 °F - 33.1 °F 92% 30.40 in 2.0 mi Calm Calm - 0.01 in Rain Light Rain
5:24 PM 35.1 °F - 34.0 °F 96% 30.40 in 6.0 mi Calm Calm - 0.00 in Rain Light Rain
5:53 PM 34.0 °F - 33.1 °F 96% 30.41 in 3.0 mi Calm Calm - 0.00 in Rain Light Rain
6:53 PM 34.0 °F - 34.0 °F 100% 30.40 in 3.0 mi Calm Calm - 0.00 in Rain Light Rain
7:53 PM 34.0 °F - 33.1 °F 96% 30.40 in 3.0 mi Calm Calm - 0.00 in Rain Light Rain
8:48 PM 33.8 °F 29.6 °F 32.0 °F 93% 30.42 in 3.0 mi West 4.6 mph - 0.00 in Rain Light Rain
8:53 PM 34.0 °F 31.0 °F 32.0 °F 92% 30.42 in 4.0 mi WNW 3.5 mph - 0.00 in Rain Light Rain
9:46 PM 34.0 °F - 33.1 °F 96% 30.43 in 3.0 mi Calm Calm - 0.00 in Rain Light Rain
9:53 PM 34.0 °F 31.0 °F 33.1 °F 96% 30.43 in 2.5 mi East 3.5 mph - 0.00 in Rain Light Rain
10:22 PM 34.0 °F - 33.1 °F 96% 30.44 in 1.2 mi Calm Calm - 0.00 in Rain Light Rain
10:53 PM 34.0 °F - 33.1 °F 96% 30.43 in 1.0 mi Calm Calm - 0.00 in Rain Light Rain
11:53 PM 34.0 °F - 33.1 °F 96% 30.44 in 1.0 mi Calm Calm - 0.00 in Rain Light Rain